Location: Spruce Knob
(38.6995°N, 79.5330°W)
Time: 19:40:17
(UTC-04:00)

ITUPSAT 1 - Visible Passes

Search period start: 12 April 2024 00:00
Search period end: 22 April 2024 00:00
Orbit: 695 x 707 km, 98.5° (Epoch: 12 April)

Date Brightness Start Highest point End Pass type
(mag) Time Alt. Az. Time Alt. Az. Time Alt. Az.
12 Apr ? 00:06:54 10° N 00:07:56 15° NNW 00:07:56 15° NNW visible
12 Apr ? 23:11:08 10° NNE 23:12:02 16° NNE 23:12:02 16° NNE visible
13 Apr ? 23:53:40 10° N 23:55:00 18° N 23:55:00 18° N visible
14 Apr ? 22:58:14 10° NNE 22:59:06 15° NNE 22:59:06 15° NNE visible
15 Apr ? 00:37:11 10° NNW 00:37:57 13° NW 00:37:57 13° NW visible
15 Apr ? 23:40:31 10° N 23:42:02 20° N 23:42:02 20° N visible
16 Apr ? 22:45:25 10° NNE 22:46:08 14° NE 22:46:08 14° NE visible
17 Apr ? 00:23:38 10° NNW 00:25:00 16° NNW 00:25:00 16° NNW visible
17 Apr ? 23:27:26 10° N 23:29:05 22° N 23:29:05 22° N visible
18 Apr ? 22:32:42 10° NE 22:33:11 12° NE 22:33:11 12° NE visible
19 Apr ? 00:10:15 10° N 00:12:02 20° NNW 00:12:02 20° NNW visible
19 Apr ? 23:14:26 10° NNE 23:16:07 22° NNE 23:16:07 22° NNE visible
20 Apr ? 00:54:40 10° NW 00:54:58 11° NW 00:54:58 11° NW visible
20 Apr ? 22:20:09 10° NE 22:20:12 10° NE 22:20:12 10° NE visible
20 Apr ? 23:56:59 10° N 23:59:03 24° NNW 23:59:03 24° NNW visible
21 Apr ? 23:01:28 10° NNE 23:03:08 21° NNE 23:03:08 21° NNE visible
